TimeCDT,TemperatureF,Dew PointF,Humidity,Sea Level PressureIn,VisibilityMPH,Wind Direction,Wind SpeedMPH,Gust SpeedMPH,PrecipitationIn,Events,Conditions,WindDirDegrees,DateUTC
12:53 AM,75.0,68.0,79,29.79,10.0,ESE,6.9,-,N/A,,Overcast,120,2013-04-03 05:53:00
1:53 AM,75.0,69.1,82,29.80,10.0,ENE,6.9,-,N/A,,Overcast,70,2013-04-03 06:53:00
2:53 AM,75.0,68.0,79,29.79,10.0,East,6.9,-,N/A,,Overcast,80,2013-04-03 07:53:00
3:53 AM,75.0,68.0,79,29.78,10.0,ENE,8.1,-,0.00,Rain,Light Rain,70,2013-04-03 08:53:00
4:53 AM,75.0,69.1,82,29.78,10.0,NE,10.4,-,0.00,,Overcast,40,2013-04-03 09:53:00
5:53 AM,73.9,68.0,82,29.78,10.0,NNE,5.8,-,N/A,,Clear,20,2013-04-03 10:53:00
6:53 AM,73.0,68.0,84,29.80,10.0,NE,4.6,-,N/A,,Clear,40,2013-04-03 11:53:00
7:13 AM,73.4,69.8,88,29.81,10.0,NE,11.5,-,N/A,,Scattered Clouds,50,2013-04-03 12:13:00
7:20 AM,71.6,69.8,94,29.81,10.0,ENE,6.9,-,N/A,,Mostly Cloudy,60,2013-04-03 12:20:00
7:53 AM,72.0,69.1,91,29.83,10.0,ENE,5.8,-,N/A,,Overcast,60,2013-04-03 12:53:00
8:48 AM,71.6,64.4,78,29.88,10.0,NE,10.4,21.9,N/A,,Overcast,40,2013-04-03 13:48:00
8:53 AM,72.0,64.9,78,29.87,10.0,NE,9.2,-,N/A,,Overcast,50,2013-04-03 13:53:00
9:25 AM,71.6,62.6,73,29.89,10.0,NE,12.7,-,N/A,,Overcast,40,2013-04-03 14:25:00
9:53 AM,72.0,61.0,68,29.90,10.0,NNE,15.0,20.7,0.00,,Overcast,30,2013-04-03 14:53:00
10:53 AM,75.9,61.0,60,29.91,10.0,NNE,13.8,-,0.00,,Mostly Cloudy,30,2013-04-03 15:53:00
11:53 AM,73.0,61.0,66,29.91,10.0,North,16.1,-,N/A,,Partly Cloudy,10,2013-04-03 16:53:00
12:53 PM,75.0,61.0,62,29.89,10.0,North,12.7,-,N/A,,Clear,10,2013-04-03 17:53:00
1:53 PM,80.1,60.1,50,29.89,10.0,NNE,10.4,-,N/A,,Partly Cloudy,20,2013-04-03 18:53:00
2:53 PM,78.1,57.0,48,29.89,10.0,NNW,11.5,-,N/A,,Overcast,330,2013-04-03 19:53:00
3:53 PM,77.0,57.0,50,29.90,10.0,NNW,13.8,23.0,N/A,,Overcast,330,2013-04-03 20:53:00
4:53 PM,78.1,57.0,48,29.89,10.0,North,19.6,27.6,N/A,,Overcast,360,2013-04-03 21:53:00
5:53 PM,78.1,57.9,50,29.89,10.0,North,17.3,-,N/A,,Partly Cloudy,360,2013-04-03 22:53:00
6:53 PM,75.0,57.0,53,29.91,10.0,NNW,15.0,-,N/A,,Overcast,340,2013-04-03 23:53:00
7:53 PM,73.0,55.9,55,29.94,10.0,NNW,15.0,-,N/A,,Overcast,330,2013-04-04 00:53:00
8:53 PM,70.0,55.0,59,29.99,10.0,NNW,18.4,27.6,N/A,,Overcast,340,2013-04-04 01:53:00
9:53 PM,66.9,54.0,63,30.04,10.0,North,16.1,24.2,N/A,,Overcast,350,2013-04-04 02:53:00
10:53 PM,64.9,55.0,70,30.08,10.0,North,15.0,-,N/A,,Overcast,350,2013-04-04 03:53:00
11:53 PM,64.9,55.0,70,30.09,10.0,North,12.7,-,N/A,,Overcast,350,2013-04-04 04:53:00